This is the latest recevied weather packets stored in our database for station/object KD9CCP. If no packets are shown the sender has not sent any weather packets the latest 10 day(s).
| Time | Temp. | Humidity | Pressure | Rain* | Wind** | Luminosity | Snow |
|---|---|---|---|---|---|---|---|
| 1777901099 | 13.89° C | 51% | 994.3 hPa | 0 mm | - | 38 W/m² | - |
| 1777900797 | 13.89° C | 52% | 994.4 hPa | 0 mm | - | 40 W/m² | - |
| 1777900494 | 13.33° C | 52% | 994.4 hPa | 0 mm | - | 47 W/m² | - |
| 1777900190 | 13.33° C | 53% | 994.4 hPa | 0 mm | - | 38 W/m² | - |
| 1777899887 | 13.33° C | 52% | 994.4 hPa | 0 mm | - | 34 W/m² | - |
| 1777899584 | 12.78° C | 53% | 994.5 hPa | 0 mm | - | 31 W/m² | - |
| 1777899282 | 12.78° C | 54% | 994.7 hPa | 0 mm | - | 23 W/m² | - |
| 1777898979 | 12.78° C | 53% | 995.1 hPa | 0 mm | - | 17 W/m² | - |
| 1777898676 | 12.78° C | 54% | 995.1 hPa | 0 mm | - | 19 W/m² | - |
| 1777898373 | 12.78° C | 52% | 994.9 hPa | 0 mm | - | 27 W/m² | - |
| 1777898071 | 12.78° C | 52% | 995.4 hPa | 0 mm | - | 27 W/m² | - |
| 1777897767 | 12.78° C | 50% | 995.6 hPa | 0 mm | - | 19 W/m² | - |
| 1777897463 | 12.78° C | 52% | 995.7 hPa | 0 mm | - | 17 W/m² | - |
| 1777897159 | 12.78° C | 50% | 995.8 hPa | 0 mm | - | 21 W/m² | - |
| 1777896855 | 12.78° C | 51% | 995.5 hPa | 0 mm | - | 24 W/m² | - |
| 1777896553 | 12.22° C | 51% | 995.6 hPa | 0 mm | - | 22 W/m² | - |
| 1777896250 | 12.22° C | 52% | 995.6 hPa | 0 mm | - | 20 W/m² | - |
| 1777895948 | 12.22° C | 51% | 995.6 hPa | 0 mm | - | 15 W/m² | - |
| 1777895645 | 12.22° C | 52% | 995.8 hPa | 0 mm | - | 17 W/m² | - |
| 1777895343 | 11.67° C | 52% | 996 hPa | 0 mm | - | 17 W/m² | - |
| 1777895041 | 11.67° C | 53% | 995.8 hPa | 0 mm | - | 16 W/m² | - |
| 1777894737 | 11.67° C | 53% | 996.3 hPa | 0 mm | - | 13 W/m² | - |
| 1777894434 | 11.67° C | 52% | 996.2 hPa | 0 mm | - | 11 W/m² | - |
| 1777894132 | 11.11° C | 54% | 996.2 hPa | 0 mm | - | 8 W/m² | - |
| 1777893828 | 11.11° C | 54% | 996.2 hPa | 0 mm | - | 6 W/m² | - |
* Rain latest hour (hover to see other rain measurements)
** Current wind speed in m/s (hover to see current wind gust speed)